sat.trackr.live / text

‹ back to catalog

YAOGAN-11

NORAD 37165 · 2010-047A

PAYLOAD ACTIVE UNKNOWN

§ Identity

Operator
Country
PRC
Launch date
2010-09-22
Launch site
JSC
Launch vehicle
Mass (kg)
RCS (m²)
3.33

External: N2YO · Heavens-Above · Gunter

§ Orbital elements

Epoch: 2026-05-25T02:16:46.998624Z

Period
97.16 min
Inclination
98.3886°
Eccentricity
0.0033866
Mean motion
14.82041699 rev/d
Perigee alt
599.2 km
Apogee alt
646.6 km
Semi-major
7,001.0 km
B*
8.4099e-5
RAAN
10.1061°
Arg perigee
318.2029°
Mean anomaly
41.6597°
Rev number
84,467

§ Raw data

YAOGAN-111 37165U 10047A   26145.09498841  .00000613  00000+0  84099-4 0  99982 37165  98.3886  10.1061 0033866 318.2029  41.6597 14.82041699844671

JSON: /api/v1/satellites/37165 · /tle

For live sub-satellite position, see the globe view (requires WebGL).

§ Visibility from observer

Set your observer location to see the next 7 days of passes ≥ 10°. The values pass through the URL so the page stays shareable.

No JS? Fill the form by hand. The geolocation button needs JavaScript.